Terminal Aerodrome Forecast
Issued by NWS Charleston, WV

Current Version | Previous Version | Graphics & Text | Print | Product List | Glossary On
Versions: 1 2 3 4 5 6 7 8 9 10 11 12 13 14 15 16 17 18 19 20 21 22 23 24 25 26 27 28 29 30
000
FTUS41 KRLX 131400 AAB
TAFCRW
TAF AMD
KCRW 131440Z 1315/1412 VRB03KT 2SM BR VCSH BKN007 OVC030
     FM131500 VRB03KT 4SM BR BKN015 OVC035
     FM131700 31005KT P6SM BKN020 OVC035
     FM132200 33005KT P6SM BKN035
     FM140200 VRB03KT P6SM SCT250
     FM140300 00000KT 6SM BR SCT250
     FM140800 00000KT 5SM BR SCT250=

USA.gov is the U.S. government's official web portal to all federal, state and local government web resources and services.